Wautoma, WI

9:57 PM CDT on August 29, 2016 (GMT -0500)
Wautoma

Weather History for KY50 - September, 2013

Change the Weather History Date:

Sunday, September 15, 2013

  Actual Average (KPCZ) Record (KPCZ)
Temperature  
Mean Temperature 58 °F -  
Max Temperature 64 °F 68 °F 86 °F (2015)
Min Temperature 52 °F 49 °F 32 °F (1964)
Degree Days  
Heating Degree Days 6    
Growing Degree Days 8 (Base 50)    
Moisture  
Dew Point 55 °F    
Average Humidity 91    
Maximum Humidity 100    
Minimum Humidity 72    
Precipitation  
Precipitation 0.58 in - - ()
Sea Level Pressure  
Sea Level Pressure 30.06 in    
Wind  
Wind Speed 4 mph (NE)    
Max Wind Speed 15 mph    
Max Gust Speed 21 mph    
Visibility 6 miles    
Events Rain    
Averages and records for this station are not official NWS values.
T = Trace of Precipitation, MM = Missing Value Source: NWS Daily Summary

Daily Weather History Graph

Daily Weather History Graph

Search for Another Location

Airport or City:

Trip Planner

Search our weather history database for the weather conditions in past years. The results will help you decide how hot, cold, wet, or windy it might be!

Date:

Astronomy

Sep. 15, 2013 Rise Set
Actual Time 6:36 AM CDT 7:07 PM CDT
Civil Twilight 6:07 AM CDT 7:36 PM CDT
Nautical Twilight 5:33 AM CDT 8:10 PM CDT
Astronomical Twilight 4:57 AM CDT 8:45 PM CDT
Moon 4:40 PM CDT (9/15) 2:07 AM CDT (9/15)
Length of Visible Light 13h 28m
Length of Day
12h 30m
Waxing Gibbous, 82% of the Moon is Illuminated
Sep 15
Waxing Gibbous
Sep 19
Full
Sep 26
Last Quarter
Oct 4
New
Oct 11
First Quarter

Hourly Weather History & Observations

Time (CDT) Temp. Dew Point Humidity Pressure Visibility Wind Dir Wind Speed Gust Speed Precip Events Conditions
12:56 AM 57.2 °F 51.8 °F 82% 30.01 in 10.0 mi Calm Calm - N/A Rain Light Rain
1:12 AM 55.4 °F 55.4 °F 100% 30.01 in 5.0 mi Calm Calm - 0.01 in Rain Light Rain
1:56 AM 54.9 °F 54.9 °F 100% 30.02 in 4.0 mi WNW 5.8 mph - 0.12 in Rain Light Rain
2:04 AM 55.4 °F 55.4 °F 100% 30.03 in 2.5 mi West 9.2 mph - 0.05 in Rain Heavy Rain
2:19 AM 55.4 °F 55.4 °F 100% 30.03 in 5.0 mi West 9.2 mph - 0.08 in Rain Light Rain
2:40 AM 53.6 °F 53.6 °F 100% 30.03 in 6.0 mi West 5.8 mph - 0.11 in Rain Light Rain
2:56 AM 54.0 °F 54.0 °F 100% 30.02 in 4.0 mi WSW 4.6 mph - 0.15 in Rain Rain
3:29 AM 53.6 °F 53.6 °F 100% 30.02 in 7.0 mi Calm Calm - 0.06 in Rain Light Rain
3:56 AM 53.6 °F - N/A% 30.01 in 10.0 mi SE 4.6 mph - N/A Rain Light Rain
4:56 AM 54.0 °F - N/A% 29.99 in 10.0 mi SE 4.6 mph - 0.00 in   Overcast
5:16 AM 53.6 °F - N/A% 29.99 in 10.0 mi SE 4.6 mph - 0.00 in Rain Light Rain
5:56 AM 54.0 °F - N/A% 29.97 in 10.0 mi SE 4.6 mph - 0.00 in   Overcast
6:56 AM 53.6 °F - N/A% 29.99 in 3.0 mi ESE 3.5 mph - N/A Rain Light Rain
7:03 AM 53.6 °F - N/A% 29.99 in 3.0 mi SE 3.5 mph - 0.00 in Rain Light Rain
7:10 AM 53.6 °F - N/A% 29.99 in 2.0 mi Calm Calm - 0.00 in Rain Light Rain
7:22 AM 53.6 °F - N/A% 29.99 in 1.8 mi ESE 3.5 mph - 0.00 in Rain Light Rain
7:33 AM 53.6 °F - N/A% 29.99 in 1.2 mi ESE 4.6 mph - 0.01 in Rain Light Rain
7:48 AM 53.6 °F - N/A% 29.99 in 1.2 mi ESE 3.5 mph - 0.01 in Rain Light Rain
7:56 AM 54.0 °F - N/A% 29.99 in 1.2 mi Calm Calm - 0.01 in Rain Light Rain
8:12 AM 53.6 °F - N/A% 29.99 in 1.0 mi Calm Calm - 0.04 in Rain Light Rain
8:23 AM 53.6 °F - N/A% 30.00 in 1.2 mi Calm Calm - 0.06 in Rain Light Rain
8:34 AM 53.6 °F - N/A% 30.00 in 1.5 mi Calm Calm - 0.09 in Rain Light Rain
8:49 AM 55.4 °F - N/A% 30.00 in 1.2 mi Calm Calm - 0.14 in Rain Rain
8:56 AM 54.9 °F - N/A% 30.00 in 1.5 mi Calm Calm - 0.15 in Rain Light Rain
9:03 AM 55.4 °F - N/A% 30.01 in 3.0 mi Calm Calm - 0.01 in Rain Light Rain
9:21 AM 55.4 °F - N/A% 30.01 in 2.0 mi Calm Calm - 0.04 in Rain Light Rain
9:43 AM 55.4 °F - N/A% 30.02 in 1.2 mi Calm Calm - 0.08 in Rain Rain
9:56 AM 55.4 °F - N/A% 30.02 in 1.5 mi Calm Calm - N/A Rain Rain
10:03 AM 55.4 °F - N/A% 30.02 in 1.2 mi Calm Calm - 0.03 in Rain Rain
10:09 AM 55.4 °F - N/A% 30.02 in 2.0 mi Calm Calm - 0.05 in Rain Rain
10:40 AM 55.4 °F - N/A% 30.02 in 2.5 mi Calm Calm - 0.13 in Rain Light Rain
10:45 AM 55.4 °F - N/A% 30.02 in 3.0 mi ENE 4.6 mph - 0.13 in Rain Light Rain
10:56 AM 54.9 °F - N/A% 30.02 in 6.0 mi NE 6.9 mph - 0.14 in Rain Light Rain
11:16 AM 55.4 °F - N/A% 30.03 in 8.0 mi ENE 5.8 mph - 0.01 in Rain Light Rain
11:42 AM 55.4 °F - N/A% 30.03 in 10.0 mi East 5.8 mph - 0.01 in   Overcast
11:56 AM 55.9 °F - N/A% 30.03 in 10.0 mi East 5.8 mph - 0.01 in   Overcast
12:05 PM 57.2 °F - N/A% 30.03 in 10.0 mi East 5.8 mph - N/A   Overcast
12:18 PM 57.2 °F 57.2 °F 100% 30.04 in 10.0 mi Variable 4.6 mph - N/A   Overcast
12:56 PM 57.2 °F 57.2 °F 100% 30.05 in 10.0 mi ENE 6.9 mph - N/A   Overcast
1:23 PM 57.2 °F 57.2 °F 100% 30.06 in 10.0 mi NNE 6.9 mph - N/A   Overcast
1:56 PM 61.0 °F 59.0 °F 93% 30.05 in 10.0 mi NNE 8.1 mph - N/A   Overcast
2:01 PM 62.6 °F 59.0 °F 88% 30.06 in 10.0 mi Variable 6.9 mph - N/A   Overcast
2:56 PM 61.9 °F 56.8 °F 84% 30.06 in 10.0 mi NNE 9.2 mph - N/A   Overcast
3:56 PM 64.4 °F 55.4 °F 73% 30.09 in 10.0 mi North 6.9 mph - N/A   Mostly Cloudy
4:56 PM 63.9 °F 54.9 °F 72% 30.10 in 10.0 mi NNE 5.8 mph - N/A   Mostly Cloudy
5:56 PM 63.0 °F 54.9 °F 75% 30.12 in 10.0 mi North 5.8 mph - N/A   Overcast
6:56 PM 62.6 °F 57.2 °F 82% 30.15 in 10.0 mi NNE 12.7 mph 19.6 mph N/A   Overcast
7:18 PM 60.8 °F 57.2 °F 88% 30.17 in 10.0 mi NE 9.2 mph - N/A   Overcast
7:56 PM 59.0 °F 56.8 °F 93% 30.18 in 10.0 mi NE 8.1 mph - N/A   Overcast
8:13 PM 57.2 °F 57.2 °F 100% 30.20 in 10.0 mi NNE 8.1 mph - N/A   Overcast
8:56 PM 56.8 °F 55.9 °F 97% 30.22 in 10.0 mi NNE 15.0 mph 20.7 mph N/A   Overcast
9:47 PM 55.4 °F 53.6 °F 94% 30.24 in 10.0 mi NE 8.1 mph - N/A   Overcast
9:56 PM 54.9 °F 54.0 °F 97% 30.25 in 10.0 mi NE 8.1 mph - N/A   Overcast
10:20 PM 55.4 °F 51.8 °F 88% 30.25 in 10.0 mi NNE 8.1 mph - N/A   Overcast
10:56 PM 54.9 °F 48.9 °F 80% 30.27 in 10.0 mi NNE 10.4 mph - N/A   Overcast
11:56 PM 52.9 °F 45.9 °F 77% 30.30 in 10.0 mi NNE 8.1 mph - N/A   Overcast